When you browse on this site, cookies collect data to enhance your experience and personalize the content and advertising you see.
Visit our Privacy Policy to learn more. By continuing to use the site, you agree to this use of cookies and data.
  • In Österreich
  • Länderverzeichnis
  • Für 7 Tage
  • Wassertemperatur
  • Satellitenkarten
  • Wetterkarte
  • News
  • Widgets
  • user-avatar
    Anmelden

    Stündliche Wetter Summerville

    Heute, 17 Februar, Sonntag

    Zeit Temperatur Niederschläge Wind Luftdruck Luftfeuchtigkeit
    00:00 +9°C° 0 mm 3 m/S 757 mmHg 84%
    01:00 +9°C° 0 mm 2 m/S 758 mmHg 83%
    02:00 +9°C° 0 mm 2 m/S 758 mmHg 83%
    03:00 +9°C° 0 mm 2 m/S 758 mmHg 83%
    04:00 +9°C° 0 mm 2 m/S 758 mmHg 83%
    05:00 +9°C° 0 mm 2 m/S 758 mmHg 84%
    06:00 +9°C° 0 mm 2 m/S 759 mmHg 85%
    07:00 +9°C° 0 mm 2 m/S 759 mmHg 86%
    08:00 +10°C° 0 mm 2 m/S 760 mmHg 84%
    09:00 +10°C° 0 mm 2 m/S 760 mmHg 83%
    10:00 +12°C° 0 mm 1 m/S 760 mmHg 82%
    11:00 +13°C° 0 mm 1 m/S 760 mmHg 82%
    12:00 +13°C° 0 mm 1 m/S 760 mmHg 82%
    13:00 +14°C° 0 mm 1 m/S 759 mmHg 82%
    14:00 +15°C° 0 mm 1 m/S 759 mmHg 80%
    15:00 +18°C° 0 mm 1 m/S 759 mmHg 78%
    16:00 +18°C° 0 mm 2 m/S 758 mmHg 77%
    17:00 +17°C° 0 mm 2 m/S 758 mmHg 83%
    18:00 +17°C° 0 mm 2 m/S 759 mmHg 89%
    19:00 +16°C° 0 mm 2 m/S 759 mmHg 94%
    20:00 +16°C° 0 mm 2 m/S 758 mmHg 95%
    21:00 +16°C° 0 mm 3 m/S 758 mmHg 96%
    22:00 +17°C° 0 mm 3 m/S 758 mmHg 96%
    23:00 +17°C° 0 mm 4 m/S 758 mmHg 95%

    Morgen, 18 Februar, Montag

    Zeit Temperatur Niederschläge Wind Luftdruck Luftfeuchtigkeit
    00:00 +18°C° 0 mm 4 m/S 757 mmHg 93%
    01:00 +18°C° 0 mm 4 m/S 757 mmHg 91%
    02:00 +19°C° 0 mm 4 m/S 757 mmHg 91%
    03:00 +19°C° 0 mm 4 m/S 757 mmHg 91%
    04:00 +19°C° 0 mm 4 m/S 757 mmHg 90%
    05:00 +19°C° 0 mm 4 m/S 757 mmHg 92%
    06:00 +19°C° 0 mm 3 m/S 758 mmHg 93%
    07:00 +20°C° 0 mm 3 m/S 758 mmHg 94%
    08:00 +19°C° 0.1 mm 3 m/S 759 mmHg 88%
    09:00 +18°C° 0.1 mm 2 m/S 760 mmHg 81%
    10:00 +18°C° 0.1 mm 2 m/S 761 mmHg 75%
    11:00 +18°C° 0 mm 2 m/S 761 mmHg 70%
    12:00 +18°C° 0 mm 3 m/S 762 mmHg 65%
    13:00 +18°C° 0 mm 3 m/S 762 mmHg 60%
    14:00 +17°C° 0 mm 3 m/S 762 mmHg 60%
    15:00 +17°C° 0 mm 2 m/S 762 mmHg 61%
    16:00 +16°C° 0 mm 2 m/S 762 mmHg 61%
    17:00 +16°C° 0 mm 1 m/S 763 mmHg 63%
    18:00 +16°C° 0 mm 1 m/S 764 mmHg 65%
    19:00 +15°C° 0 mm 0 m/S 764 mmHg 67%
    20:00 +16°C° 0 mm 1 m/S 765 mmHg 65%
    21:00 +16°C° 0 mm 1 m/S 766 mmHg 63%
    22:00 +16°C° 0 mm 2 m/S 766 mmHg 62%
    23:00 +16°C° 0 mm 2 m/S 767 mmHg 55%

    übermorgen, 19 Februar, Dienstag

    Zeit Temperatur Niederschläge Wind Luftdruck Luftfeuchtigkeit
    00:00 +15°C° 0 mm 2 m/S 767 mmHg 49%
    01:00 +14°C° 0 mm 3 m/S 767 mmHg 43%
    02:00 +14°C° 0 mm 3 m/S 767 mmHg 47%
    03:00 +13°C° 0 mm 3 m/S 767 mmHg 50%
    04:00 +12°C° 0 mm 4 m/S 767 mmHg 54%
    05:00 +12°C° 0 mm 4 m/S 768 mmHg 54%
    06:00 +11°C° 0 mm 4 m/S 768 mmHg 53%
    07:00 +10°C° 0 mm 4 m/S 769 mmHg 52%
    08:00 +10°C° 0 mm 4 m/S 770 mmHg 51%
    09:00 +8°C° 0 mm 4 m/S 770 mmHg 50%
    10:00 +8°C° 0 mm 4 m/S 771 mmHg 49%
    11:00 +8°C° 0.1 mm 4 m/S 771 mmHg 51%
    12:00 +8°C° 0.1 mm 4 m/S 771 mmHg 54%
    13:00 +8°C° 0.1 mm 4 m/S 771 mmHg 57%
    14:00 +10°C° 0 mm 4 m/S 770 mmHg 59%
    15:00 +9°C° 0 mm 5 m/S 769 mmHg 61%
    16:00 +9°C° 0 mm 5 m/S 768 mmHg 63%
    17:00 +9°C° 0.4 mm 5 m/S 769 mmHg 69%
    18:00 +8°C° 0.4 mm 5 m/S 769 mmHg 74%
    19:00 +8°C° 0.4 mm 4 m/S 769 mmHg 80%
    20:00 +7°C° 0.2 mm 5 m/S 769 mmHg 81%
    21:00 +7°C° 0.2 mm 5 m/S 769 mmHg 82%
    22:00 +7°C° 0.2 mm 5 m/S 769 mmHg 83%
    23:00 +7°C° 0.7 mm 5 m/S 768 mmHg 85%

    20 Februar, Mittwoch

    Zeit Temperatur Niederschläge Wind Luftdruck Luftfeuchtigkeit
    00:00 +8°C° 0.7 mm 4 m/S 768 mmHg 88%
    01:00 +9°C° 0.7 mm 3 m/S 767 mmHg 90%
    02:00 +10°C° 0.8 mm 4 m/S 766 mmHg 90%
    03:00 +11°C° 0.8 mm 4 m/S 766 mmHg 91%
    04:00 +11°C° 0.8 mm 4 m/S 765 mmHg 91%
    05:00 +12°C° 1.3 mm 4 m/S 764 mmHg 92%
    06:00 +13°C° 1.3 mm 4 m/S 764 mmHg 94%
    07:00 +13°C° 1.3 mm 3 m/S 764 mmHg 95%
    08:00 +14°C° 0.4 mm 3 m/S 763 mmHg 95%
    09:00 +16°C° 0.4 mm 2 m/S 763 mmHg 95%
    10:00 +17°C° 0.4 mm 2 m/S 763 mmHg 96%
    11:00 +18°C° 0 mm 2 m/S 763 mmHg 92%
    12:00 +20°C° 0 mm 2 m/S 762 mmHg 88%
    13:00 +21°C° 0 mm 2 m/S 762 mmHg 85%
    14:00 +21°C° 0.1 mm 2 m/S 761 mmHg 86%
    15:00 +22°C° 0.1 mm 1 m/S 761 mmHg 88%
    16:00 +22°C° 0.1 mm 1 m/S 760 mmHg 90%
    17:00 +21°C° 0.1 mm 1 m/S 761 mmHg 92%
    18:00 +20°C° 0.1 mm 1 m/S 761 mmHg 94%
    19:00 +20°C° 0.1 mm 1 m/S 761 mmHg 97%
    20:00 +20°C° 0 mm 1 m/S 761 mmHg 97%
    21:00 +20°C° 0 mm 1 m/S 761 mmHg 97%
    22:00 +19°C° 0 mm 2 m/S 761 mmHg 98%
    23:00 +19°C° 0 mm 2 m/S 761 mmHg 98%

    21 Februar, Donnerstag

    Zeit Temperatur Niederschläge Wind Luftdruck Luftfeuchtigkeit
    00:00 +19°C° 0 mm 2 m/S 761 mmHg 98%
    01:00 +19°C° 0 mm 2 m/S 761 mmHg 98%
    02:00 +19°C° 0 mm 2 m/S 761 mmHg 98%
    03:00 +19°C° 0 mm 2 m/S 760 mmHg 98%
    04:00 +19°C° 0 mm 2 m/S 760 mmHg 98%
    05:00 +19°C° 0 mm 2 m/S 761 mmHg 97%
    06:00 +18°C° 0 mm 2 m/S 761 mmHg 97%
    07:00 +18°C° 0 mm 2 m/S 761 mmHg 97%
    08:00 +20°C° 0 mm 2 m/S 762 mmHg 92%
    09:00 +23°C° 0 mm 2 m/S 762 mmHg 86%
    10:00 +25°C° 0 mm 2 m/S 763 mmHg 81%
    11:00 +26°C° 0 mm 2 m/S 763 mmHg 74%
    12:00 +27°C° 0 mm 2 m/S 762 mmHg 68%
    13:00 +29°C° 0 mm 2 m/S 762 mmHg 61%
    14:00 +29°C° 0 mm 2 m/S 762 mmHg 59%
    15:00 +29°C° 0 mm 2 m/S 761 mmHg 57%
    16:00 +29°C° 0 mm 2 m/S 761 mmHg 56%
    17:00 +27°C° 0 mm 1 m/S 761 mmHg 65%
    18:00 +25°C° 0 mm 1 m/S 761 mmHg 73%
    19:00 +23°C° 0 mm 1 m/S 761 mmHg 82%
    20:00 +23°C° 0 mm 1 m/S 762 mmHg 85%
    21:00 +22°C° 0 mm 1 m/S 762 mmHg 88%
    22:00 +22°C° 0 mm 1 m/S 762 mmHg 90%
    23:00 +21°C° 0 mm 1 m/S 762 mmHg 91%

    22 Februar, Freitag

    Zeit Temperatur Niederschläge Wind Luftdruck Luftfeuchtigkeit
    00:00 +21°C° 0 mm 1 m/S 762 mmHg 93%
    01:00 +21°C° 0 mm 1 m/S 762 mmHg 94%
    02:00 +20°C° 0 mm 1 m/S 762 mmHg 95%
    03:00 +20°C° 0 mm 1 m/S 762 mmHg 96%
    04:00 +20°C° 0 mm 1 m/S 762 mmHg 97%
    05:00 +20°C° 0 mm 1 m/S 762 mmHg 97%
    06:00 +19°C° 0 mm 1 m/S 763 mmHg 97%
    07:00 +19°C° 0 mm 1 m/S 763 mmHg 98%
    08:00 +21°C° 0 mm 1 m/S 763 mmHg 89%
    09:00 +23°C° 0 mm 1 m/S 764 mmHg 80%
    10:00 +25°C° 0 mm 1 m/S 764 mmHg 72%
    11:00 +27°C° 0 mm 1 m/S 764 mmHg 65%
    12:00 +28°C° 0 mm 1 m/S 764 mmHg 58%
    13:00 +30°C° 0 mm 2 m/S 763 mmHg 51%
    14:00 +30°C° 0 mm 2 m/S 763 mmHg 49%
    15:00 +30°C° 0 mm 2 m/S 763 mmHg 48%
    16:00 +30°C° 0 mm 2 m/S 763 mmHg 47%
    17:00 +28°C° 0 mm 2 m/S 763 mmHg 57%
    18:00 +26°C° 0 mm 2 m/S 763 mmHg 68%
    19:00 +23°C° 0 mm 2 m/S 764 mmHg 79%
    20:00 +23°C° 0 mm 2 m/S 764 mmHg 83%
    21:00 +21°C° 0 mm 2 m/S 764 mmHg 86%
    22:00 +20°C° 0 mm 2 m/S 764 mmHg 90%
    23:00 +19°C° 0 mm 2 m/S 764 mmHg 91%
    Mehr zeigen